Three Rivers, MI

7:49 PM EDT on August 22, 2017 (GMT -0400)
Three Rivers Municipal-Haines

Weather History for KHAI - December, 2011

Change the Weather History Date:

Friday, December 30, 2011

  Actual Average Record
Temperature  
Mean Temperature 36 °F -  
Max Temperature 41 °F 32 °F 54 °F (1965)
Min Temperature 32 °F 17 °F -8 °F (1983)
Degree Days  
Heating Degree Days 28    
Moisture  
Dew Point 37 °F    
Average Humidity 99    
Maximum Humidity 100    
Minimum Humidity 93    
Precipitation  
Precipitation 0.00 in - - ()
Sea Level Pressure  
Sea Level Pressure 29.62 in    
Wind  
Wind Speed 2 mph (ESE)    
Max Wind Speed 9 mph    
Max Gust Speed -    
Visibility 4 miles    
Events Rain    
Averages and records for this station are not official NWS values.
T = Trace of Precipitation, MM = Missing Value Source: NWS Daily Summary

Daily Weather History Graph

Daily Weather History Graph

Search for Another Location

Airport or City:

Trip Planner

Search our weather history database for the weather conditions in past years. The results will help you decide how hot, cold, wet, or windy it might be!

Date:

Astronomy

Dec. 30, 2011 Rise Set
Actual Time 8:09 AM EST 5:19 PM EST
Civil Twilight 7:38 AM EST 5:51 PM EST
Nautical Twilight 7:03 AM EST 6:26 PM EST
Astronomical Twilight 6:29 AM EST 7:00 PM EST
Moon 11:22 AM EST (12/30) No Moon Set
Length of Visible Light 10h 13m
Length of Day
9h 09m
Waxing Crescent, 35% of the Moon is Illuminated
Dec 30
Waxing Crescent
Jan 1
First Quarter
Jan 9
Full
Jan 16
Last Quarter
Jan 23
New

Hourly Weather History & Observations

Time (EST) Temp. Windchill Dew Point Humidity Pressure Visibility Wind Dir Wind Speed Gust Speed Precip Events Conditions
12:14 AM 33.8 °F - 32.0 °F 93% 29.71 in 10.0 mi Calm Calm - N/A   Clear
12:35 AM 33.8 °F - 32.0 °F 93% 29.71 in 10.0 mi Calm Calm - N/A   Clear
12:55 AM 33.8 °F - 32.0 °F 93% 29.71 in 10.0 mi Calm Calm - N/A   Clear
1:14 AM 32.0 °F - 32.0 °F 100% 29.72 in 10.0 mi Calm Calm - N/A   Clear
1:35 AM 32.0 °F 27.5 °F 32.0 °F 100% 29.73 in 7.0 mi SSW 4.6 mph - N/A   Mostly Cloudy
1:54 AM 32.0 °F - 32.0 °F 100% 29.72 in 10.0 mi Calm Calm - N/A   Overcast
2:15 AM 32.0 °F - 32.0 °F 100% 29.72 in 7.0 mi Calm Calm - N/A   Overcast
2:35 AM 32.0 °F - 32.0 °F 100% 29.74 in 7.0 mi Calm Calm - N/A   Overcast
2:54 AM 33.8 °F - 33.8 °F 100% 29.73 in 7.0 mi Calm Calm - N/A   Overcast
3:15 AM 33.8 °F - 33.8 °F 100% 29.74 in 7.0 mi Calm Calm - N/A   Overcast
3:54 AM 33.8 °F - 33.8 °F 100% 29.74 in 5.0 mi Calm Calm - N/A   Overcast
4:35 AM 33.8 °F 30.8 °F 33.8 °F 100% 29.74 in 7.0 mi ESE 3.5 mph - N/A   Overcast
4:55 AM 33.8 °F 29.6 °F 33.8 °F 100% 29.72 in 7.0 mi East 4.6 mph - N/A   Overcast
5:14 AM 33.8 °F - 33.8 °F 100% 29.73 in 7.0 mi Calm Calm - N/A   Overcast
5:34 AM 33.8 °F 30.8 °F 33.8 °F 100% 29.73 in 10.0 mi SE 3.5 mph - N/A   Overcast
5:55 AM 33.8 °F 29.6 °F 33.8 °F 100% 29.73 in 10.0 mi SE 4.6 mph - N/A   Overcast
6:35 AM 33.8 °F 29.6 °F 33.8 °F 100% 29.72 in 10.0 mi ESE 4.6 mph - N/A   Overcast
6:54 AM 33.8 °F 30.8 °F 33.8 °F 100% 29.72 in 10.0 mi East 3.5 mph - N/A   Overcast
7:15 AM 33.8 °F 29.6 °F 33.8 °F 100% 29.72 in 7.0 mi ESE 4.6 mph - N/A Rain Rain
8:35 AM 33.8 °F 30.8 °F 33.8 °F 100% 29.69 in 7.0 mi East 3.5 mph - N/A   Drizzle
8:54 AM 35.6 °F 31.7 °F 33.8 °F 93% 29.71 in 5.0 mi SSE 4.6 mph - N/A Rain Light Rain
9:15 AM 33.8 °F 28.6 °F 33.8 °F 100% 29.69 in 3.0 mi East 5.8 mph - N/A Rain Rain
9:34 AM 35.6 °F 31.7 °F 35.6 °F 100% 29.69 in 2.5 mi East 4.6 mph - N/A Rain Rain
10:15 AM 35.6 °F 29.9 °F 35.6 °F 100% 29.65 in 3.0 mi East 6.9 mph - N/A Rain Light Rain
10:34 AM 35.6 °F 29.9 °F 35.6 °F 100% 29.65 in 4.0 mi ESE 6.9 mph - N/A   Overcast
10:55 AM 37.4 °F 32.1 °F 35.6 °F 93% 29.65 in 4.0 mi SE 6.9 mph - N/A   Overcast
11:15 AM 37.4 °F 32.8 °F 37.4 °F 100% 29.63 in 4.0 mi East 5.8 mph - N/A   Overcast
11:34 AM 37.4 °F 32.1 °F 37.4 °F 100% 29.62 in 4.0 mi ESE 6.9 mph - N/A   Overcast
11:55 AM 37.4 °F 32.8 °F 37.4 °F 100% 29.60 in 3.0 mi ESE 5.8 mph - N/A   Light Drizzle
12:15 PM 39.2 °F 35.0 °F 37.4 °F 93% 29.59 in 4.0 mi East 5.8 mph - N/A   Overcast
12:34 PM 39.2 °F 35.0 °F 37.4 °F 93% 29.56 in 1.5 mi East 5.8 mph - N/A Rain Light Rain
12:55 PM 39.2 °F 35.0 °F 39.2 °F 100% 29.54 in 1.8 mi East 5.8 mph - N/A   Overcast
1:14 PM 39.2 °F 33.6 °F 39.2 °F 100% 29.52 in 2.0 mi East 8.1 mph - N/A   Overcast
2:14 PM 41.0 °F 35.8 °F 41.0 °F 100% 29.49 in 1.5 mi ESE 8.1 mph - N/A Rain Light Rain
2:35 PM 41.0 °F 35.8 °F 41.0 °F 100% 29.48 in 1.5 mi ESE 8.1 mph - N/A Rain Rain
2:55 PM 41.0 °F 35.2 °F 41.0 °F 100% 29.48 in 1.8 mi East 9.2 mph - N/A Rain Rain
3:14 PM 41.0 °F 36.4 °F 41.0 °F 100% 29.48 in 1.8 mi East 6.9 mph - N/A Rain Light Rain
3:35 PM 41.0 °F 37.1 °F 41.0 °F 100% 29.48 in 2.0 mi East 5.8 mph - N/A Rain Rain
3:55 PM 41.0 °F 37.1 °F 41.0 °F 100% 29.48 in 2.0 mi East 5.8 mph - N/A Rain Light Rain
4:14 PM 41.0 °F 38.0 °F 41.0 °F 100% 29.49 in 2.0 mi ENE 4.6 mph - N/A   Drizzle
4:35 PM 41.0 °F - 41.0 °F 100% 29.49 in 1.8 mi Calm Calm - N/A Rain Rain
4:55 PM 41.0 °F - 41.0 °F 100% 29.49 in 1.5 mi Calm Calm - N/A Rain Light Rain
5:14 PM 41.0 °F - 41.0 °F 100% 29.50 in 1.8 mi Calm Calm - N/A Rain Light Rain
5:35 PM 41.0 °F 39.0 °F 41.0 °F 100% 29.51 in 1.5 mi NW 3.5 mph - N/A Rain Light Rain
5:55 PM 41.0 °F - 41.0 °F 100% 29.51 in 1.5 mi Calm Calm - N/A Rain Light Rain
6:15 PM 41.0 °F - 41.0 °F 100% 29.52 in 1.2 mi Calm Calm - N/A Rain Rain
6:35 PM 39.2 °F - 39.2 °F 100% 29.53 in 0.8 mi Calm Calm - N/A Rain Light Rain
6:54 PM 39.2 °F - 39.2 °F 100% 29.54 in 1.0 mi Calm Calm - N/A Rain Light Rain
7:15 PM 39.2 °F - 39.2 °F 100% 29.55 in 0.5 mi Calm Calm - N/A Rain Light Rain
7:35 PM 39.2 °F - 39.2 °F 100% 29.56 in 0.5 mi Calm Calm - N/A Rain Light Rain
7:54 PM 39.2 °F - 39.2 °F 100% 29.56 in 0.8 mi Calm Calm - N/A   Drizzle
8:15 PM 39.2 °F - 39.2 °F 100% 29.57 in 0.5 mi Calm Calm - N/A   Light Drizzle
8:35 PM 39.2 °F - 39.2 °F 100% 29.58 in 0.5 mi Calm Calm - N/A Rain Light Rain
8:54 PM 39.2 °F - 39.2 °F 100% 29.58 in 0.5 mi Calm Calm - N/A Rain Rain
9:15 PM 39.2 °F - 39.2 °F 100% 29.59 in 0.5 mi Calm Calm - N/A   Drizzle
9:34 PM 37.4 °F - 37.4 °F 100% 29.59 in 0.5 mi Calm Calm - N/A Rain Light Rain
9:55 PM 41.0 °F - 41.0 °F 100% 29.60 in 1.5 mi Calm Calm - N/A Rain Light Rain
10:15 PM 39.2 °F - 39.2 °F 100% 29.61 in 1.8 mi Calm Calm - N/A   Drizzle
10:34 PM 39.2 °F - 39.2 °F 100% 29.62 in 1.8 mi Calm Calm - N/A   Drizzle
10:55 PM 39.2 °F - 39.2 °F 100% 29.62 in 2.0 mi Calm Calm - N/A Rain Rain
11:14 PM 37.4 °F 34.9 °F 37.4 °F 100% 29.63 in 2.0 mi North 3.5 mph - N/A   Drizzle
11:55 PM 37.4 °F - 37.4 °F 100% 29.65 in 2.5 mi Calm Calm - N/A Rain Light Rain